Weather History for Three Rivers, MI

Change the Weather History Date:

Thursday, November 15, 2012

  Actual Average Record
Temperature  
Mean Temperature 34 °F -  
Max Temperature 44 °F 47 °F 69 °F (1953)
Min Temperature 23 °F 30 °F 16 °F (1959)
Degree Days  
Heating Degree Days 32    
Moisture  
Dew Point 27 °F    
Average Humidity 81    
Maximum Humidity 92    
Minimum Humidity 54    
Precipitation  
Precipitation 0.00 in - - ()
Sea Level Pressure  
Sea Level Pressure 30.37 in    
Wind  
Wind Speed 1 mph (South)    
Max Wind Speed 5 mph    
Max Gust Speed -    
Visibility 6 miles    
Events      
Averages and records for this station are not official NWS values.
T = Trace of Precipitation, MM = Missing Value Source: NWS Daily Summary

Daily Weather History Graph

Daily Weather History Graph

Search for Another Location

Airport:

Trip Planner

Search our weather history database for the weather conditions in past years. The results will help you decide how hot, cold, wet, or windy it might be!

Date:

Astronomy

Nov. 15, 2012 Rise Set
Actual Time 7:32 AM EST 5:20 PM EST
Civil Twilight 7:02 AM EST 5:50 PM EST
Nautical Twilight 6:28 AM EST 6:24 PM EST
Astronomical Twilight 5:55 AM EST 6:57 PM EST
Moon 9:28 AM EST (11/15) 7:10 PM EST (11/15)
Length of Visible Light 10h 48m
Length of Day
9h 48m
Waxing Crescent, 5% of the Moon is Illuminated
Nov 15
Waxing Crescent
Nov 20
First Quarter
Nov 28
Full
Dec 6
Last Quarter
Dec 13
New

Hourly Weather History & Observations

Time (EST) Temp. Windchill Dew Point Humidity Pressure Visibility Wind Dir Wind Speed Gust Speed Precip Events Conditions
12:01 AM 28.0 °F - 24.1 °F 85% 30.42 in 7.0 mi Calm Calm - N/A   Clear
12:35 AM 27.5 °F - 24.8 °F 90% 30.42 in 5.0 mi Calm Calm - N/A   Clear
12:53 AM 27.0 °F 23.0 °F 24.4 °F 90% 30.40 in 7.0 mi SE 3.5 mph - N/A   Clear
1:14 AM 30.6 °F 27.1 °F 27.5 °F 88% 30.40 in 7.0 mi SE 3.5 mph - N/A   Clear
1:33 AM 28.6 °F - 24.4 °F 84% 30.40 in 7.0 mi Calm Calm - N/A   Clear
1:54 AM 27.1 °F - 23.9 °F 88% 30.40 in 5.0 mi Calm Calm - N/A   Clear
2:13 AM 26.2 °F - 23.2 °F 88% 30.40 in 5.0 mi Calm Calm - N/A   Clear
2:33 AM 25.7 °F - 23.0 °F 89% 30.39 in 5.0 mi Calm Calm - N/A   Clear
2:54 AM 26.4 °F - 23.5 °F 89% 30.39 in 4.0 mi Calm Calm - N/A   Clear
3:13 AM 26.1 °F - 23.5 °F 90% 30.39 in 2.5 mi Calm Calm - N/A   Clear
3:34 AM 25.5 °F - 23.4 °F 92% 30.39 in 3.0 mi Calm Calm - N/A   Clear
3:54 AM 25.5 °F - 23.4 °F 92% 30.38 in 3.0 mi Calm Calm - N/A   Clear
4:13 AM 25.3 °F - 23.2 °F 91% 30.38 in 4.0 mi Calm Calm - N/A   Clear
4:34 AM 24.6 °F - 22.3 °F 91% 30.38 in 3.0 mi Calm Calm - N/A   Clear
4:54 AM 24.1 °F - 22.1 °F 92% 30.37 in 3.0 mi Calm Calm - N/A   Clear
5:13 AM 24.1 °F - 22.1 °F 92% 30.37 in 4.0 mi Calm Calm - N/A   Clear
5:34 AM 24.4 °F - 22.5 °F 92% 30.38 in 3.0 mi Calm Calm - N/A   Clear
5:54 AM 23.7 °F - 21.7 °F 92% 30.37 in 3.0 mi Calm Calm - N/A   Clear
6:13 AM 24.1 °F - 21.9 °F 91% 30.38 in 5.0 mi Calm Calm - N/A   Clear
6:34 AM 23.9 °F - 21.7 °F 91% 30.38 in 4.0 mi Calm Calm - N/A   Clear
6:53 AM 24.4 °F - 22.1 °F 91% 30.38 in 4.0 mi Calm Calm - N/A   Clear
7:13 AM 23.9 °F - 21.7 °F 91% 30.39 in 5.0 mi Calm Calm - N/A   Clear
7:33 AM 23.7 °F - 21.4 °F 91% 30.39 in 4.0 mi Calm Calm - N/A   Clear
7:53 AM 23.9 °F - 21.6 °F 91% 30.39 in 3.0 mi Calm Calm - N/A   Clear
8:13 AM 25.0 °F - 22.5 °F 90% 30.40 in 4.0 mi Calm Calm - N/A   Clear
8:33 AM 26.4 °F - 23.5 °F 89% 30.40 in 4.0 mi Calm Calm - N/A   Clear
8:54 AM 28.6 °F - 26.2 °F 91% 30.40 in 2.5 mi Calm Calm - N/A   Clear
9:13 AM 31.1 °F - 28.6 °F 90% 30.40 in 3.0 mi Calm Calm - N/A   Clear
9:33 AM 32.0 °F - 29.1 °F 89% 30.40 in 3.0 mi Calm Calm - N/A   Clear
9:54 AM 32.9 °F - 30.2 °F 90% 30.40 in 3.0 mi Calm Calm - N/A   Clear
10:13 AM 33.8 °F - 30.7 °F 89% 30.40 in 4.0 mi Calm Calm - N/A   Clear
10:34 AM 36.0 °F - 31.8 °F 85% 30.40 in 5.0 mi Calm Calm - N/A   Clear
10:54 AM 37.4 °F - 31.5 °F 79% 30.40 in 7.0 mi Calm Calm - N/A   Clear
11:13 AM 39.0 °F - 30.7 °F 72% 30.40 in 7.0 mi Calm Calm - N/A   Clear
11:34 AM 40.1 °F 38.0 °F 30.4 °F 68% 30.39 in 10.0 mi SSW 3.5 mph - N/A   Clear
11:54 AM 41.0 °F 38.0 °F 30.4 °F 66% 30.38 in 10.0 mi SSE 4.6 mph - N/A   Clear
12:13 PM 41.9 °F 40.0 °F 30.7 °F 65% 30.38 in 10.0 mi SSW 3.5 mph - N/A   Clear
12:34 PM 42.1 °F 39.2 °F 30.0 °F 62% 30.37 in 10.0 mi SW 4.6 mph - N/A   Clear
12:54 PM 42.6 °F 39.9 °F 30.4 °F 62% 30.37 in 10.0 mi SSW 4.6 mph - N/A   Clear
1:13 PM 41.9 °F 40.0 °F 29.1 °F 61% 30.36 in 10.0 mi SSE 3.5 mph - N/A   Clear
1:34 PM 43.2 °F 41.5 °F 29.7 °F 59% 30.36 in 10.0 mi SSE 3.5 mph - N/A   Clear
1:53 PM 43.3 °F - 29.8 °F 59% 30.35 in 10.0 mi Calm Calm - N/A   Clear
2:13 PM 44.4 °F - 30.0 °F 57% 30.35 in 10.0 mi Calm Calm - N/A   Clear
2:34 PM 44.2 °F - 28.4 °F 54% 30.34 in 10.0 mi Calm Calm - N/A   Clear
2:53 PM 43.5 °F - 28.9 °F 56% 30.34 in 10.0 mi Calm Calm - N/A   Clear
3:13 PM 44.1 °F - 29.5 °F 57% 30.33 in 10.0 mi Calm Calm - N/A   Clear
3:34 PM 43.3 °F - 28.8 °F 56% 30.33 in 10.0 mi Calm Calm - N/A   Clear
3:53 PM 43.9 °F - 29.1 °F 56% 30.33 in 10.0 mi Calm Calm - N/A   Clear
4:14 PM 43.5 °F - 29.3 °F 57% 30.33 in 10.0 mi Calm Calm - N/A   Clear
4:34 PM 43.0 °F - 28.9 °F 58% 30.33 in 10.0 mi Calm Calm - N/A   Clear
4:53 PM 42.1 °F - 29.3 °F 61% 30.33 in 10.0 mi Calm Calm - N/A   Clear
5:14 PM 41.5 °F - 29.1 °F 61% 30.33 in 10.0 mi Calm Calm - N/A   Clear
5:34 PM 38.5 °F - 28.8 °F 68% 30.34 in 10.0 mi Calm Calm - N/A   Clear
5:53 PM 38.3 °F - 28.8 °F 69% 30.34 in 10.0 mi Calm Calm - N/A   Clear
6:33 PM 34.7 °F - 29.5 °F 81% 30.35 in 10.0 mi Calm Calm - N/A   Clear
6:53 PM 34.0 °F - 29.1 °F 82% 30.35 in 7.0 mi Calm Calm - N/A   Clear
7:14 PM 33.6 °F - 28.9 °F 83% 30.36 in 7.0 mi Calm Calm - N/A   Clear
7:33 PM 31.8 °F - 27.5 °F 84% 30.36 in 7.0 mi Calm Calm - N/A   Clear
7:54 PM 30.6 °F - 26.2 °F 84% 30.35 in 7.0 mi Calm Calm - N/A   Clear
8:13 PM 31.1 °F - 27.7 °F 87% 30.36 in 5.0 mi Calm Calm - N/A   Clear
8:33 PM 30.7 °F - 27.0 °F 86% 30.36 in 7.0 mi Calm Calm - N/A   Clear
8:54 PM 30.0 °F - 26.6 °F 87% 30.36 in 7.0 mi Calm Calm - N/A   Clear
9:13 PM 30.0 °F - 26.6 °F 87% 30.37 in 5.0 mi Calm Calm - N/A   Clear
9:34 PM 29.3 °F - 26.4 °F 89% 30.37 in 4.0 mi Calm Calm - N/A   Clear
9:53 PM 29.7 °F - 27.1 °F 90% 30.36 in 4.0 mi Calm Calm - N/A   Clear
10:14 PM 29.3 °F - 27.0 °F 91% 30.37 in 4.0 mi Calm Calm - N/A   Clear
10:34 PM 28.8 °F - 26.2 °F 90% 30.37 in 4.0 mi Calm Calm - N/A   Clear
10:53 PM 28.4 °F - 26.2 °F 92% 30.37 in 2.0 mi Calm Calm - N/A   Clear
11:14 PM 28.6 °F - 26.4 °F 92% 30.37 in 5.0 mi Calm Calm - N/A   Clear
11:33 PM 27.3 °F - 25.3 °F 92% 30.37 in 4.0 mi Calm Calm - N/A   Clear
11:53 PM 27.5 °F - 25.5 °F 92% 30.37 in 0.8 mi Calm Calm - N/A   Mist